When you browse on this site, cookies collect data to enhance your experience and personalize the content and advertising you see.
Visit our Privacy Policy to learn more. By continuing to use the site, you agree to this use of cookies and data.
  • En España
  • Lista de países
  • Para 7 días
  • Temperatura del agua
  • Mapa Satelital
  • El tiempo en el mapa
  • Informadores
  • user-avatar
    Iniciar sesión

    Tiempo cada hora Kruhy

    Hoy, 25 Marzo, Lunes

    Tiempo Temperatura Precipitaciones Viento Presión Humedad
    00:00 +5°C° 0 mm 2 mps 736 mmHg 67%
    01:00 +6°C° 0 mm 1 mps 736 mmHg 67%
    02:00 +5°C° 0 mm 1 mps 735 mmHg 69%
    03:00 +5°C° 0 mm 1 mps 734 mmHg 70%
    04:00 +4°C° 0 mm 0 mps 734 mmHg 70%
    05:00 +3°C° 0 mm 0 mps 733 mmHg 70%
    06:00 +4°C° 0 mm 0 mps 733 mmHg 68%
    07:00 +5°C° 0 mm 0 mps 733 mmHg 66%
    08:00 +7°C° 0 mm 1 mps 733 mmHg 61%
    09:00 +7°C° 0.1 mm 1 mps 732 mmHg 63%
    10:00 +8°C° 0.1 mm 1 mps 732 mmHg 64%
    11:00 +7°C° 0.1 mm 2 mps 731 mmHg 66%
    12:00 +8°C° 0.2 mm 1 mps 731 mmHg 69%
    13:00 +8°C° 0.2 mm 1 mps 731 mmHg 72%
    14:00 +8°C° 0.2 mm 1 mps 730 mmHg 74%
    15:00 +8°C° 0.1 mm 1 mps 730 mmHg 76%
    16:00 +7°C° 0.1 mm 2 mps 730 mmHg 77%
    17:00 +6°C° 0.1 mm 2 mps 730 mmHg 78%
    18:00 +6°C° 0 mm 2 mps 730 mmHg 79%
    19:00 +5°C° 0 mm 2 mps 730 mmHg 81%
    20:00 +5°C° 0 mm 2 mps 730 mmHg 82%
    21:00 +4°C° 0 mm 2 mps 730 mmHg 82%
    22:00 +4°C° 0 mm 2 mps 731 mmHg 83%
    23:00 +3°C° 0 mm 2 mps 731 mmHg 83%

    Mañana, 26 Marzo, Martes

    Tiempo Temperatura Precipitaciones Viento Presión Humedad
    00:00 +3°C° 0 mm 2 mps 731 mmHg 84%
    01:00 +3°C° 0 mm 2 mps 731 mmHg 84%
    02:00 +2°C° 0 mm 2 mps 731 mmHg 84%
    03:00 +2°C° 0 mm 2 mps 731 mmHg 85%
    04:00 +2°C° 0 mm 2 mps 731 mmHg 86%
    05:00 +2°C° 0 mm 2 mps 732 mmHg 87%
    06:00 +2°C° 0.2 mm 3 mps 732 mmHg 84%
    07:00 +3°C° 0.2 mm 4 mps 733 mmHg 81%
    08:00 +2°C° 0.2 mm 5 mps 733 mmHg 78%
    09:00 +3°C° 0.1 mm 5 mps 734 mmHg 72%
    10:00 +4°C° 0.1 mm 6 mps 734 mmHg 67%
    11:00 +5°C° 0.1 mm 6 mps 734 mmHg 61%
    12:00 +7°C° 0.1 mm 6 mps 734 mmHg 56%
    13:00 +7°C° 0.1 mm 6 mps 734 mmHg 51%
    14:00 +8°C° 0.1 mm 6 mps 734 mmHg 45%
    15:00 +7°C° 0 mm 6 mps 734 mmHg 46%
    16:00 +7°C° 0 mm 6 mps 734 mmHg 46%
    17:00 +7°C° 0 mm 6 mps 734 mmHg 46%
    18:00 +5°C° 0 mm 5 mps 735 mmHg 53%
    19:00 +4°C° 0 mm 4 mps 735 mmHg 60%
    20:00 +3°C° 0 mm 3 mps 735 mmHg 68%
    21:00 +2°C° 0 mm 3 mps 735 mmHg 69%
    22:00 +2°C° 0 mm 3 mps 734 mmHg 71%
    23:00 +1°C° 0 mm 3 mps 734 mmHg 72%

    Pasado mañana, 27 Marzo, Miércoles

    Tiempo Temperatura Precipitaciones Viento Presión Humedad
    00:00 +1°C° 0.2 mm 5 mps 734 mmHg 72%
    01:00 0°C° 0.2 mm 7 mps 734 mmHg 72%
    02:00 0°C° 0.2 mm 9 mps 734 mmHg 72%
    03:00 -1°C° 0.1 mm 8 mps 734 mmHg 70%
    04:00 -4°C° 0.1 mm 8 mps 734 mmHg 69%
    05:00 -5°C° 0.1 mm 8 mps 734 mmHg 68%
    06:00 -4°C° 0 mm 9 mps 735 mmHg 68%
    07:00 -3°C° 0 mm 9 mps 735 mmHg 68%
    08:00 -2°C° 0 mm 10 mps 736 mmHg 68%
    09:00 -2°C° 0 mm 10 mps 737 mmHg 65%
    10:00 0°C° 0 mm 10 mps 738 mmHg 62%
    11:00 0°C° 0 mm 9 mps 738 mmHg 60%
    12:00 +1°C° 0 mm 9 mps 739 mmHg 56%
    13:00 +2°C° 0 mm 9 mps 739 mmHg 51%
    14:00 +2°C° 0 mm 8 mps 740 mmHg 47%
    15:00 +2°C° 0 mm 8 mps 740 mmHg 47%
    16:00 +2°C° 0 mm 8 mps 740 mmHg 46%
    17:00 +3°C° 0 mm 7 mps 740 mmHg 46%
    18:00 +2°C° 0 mm 6 mps 741 mmHg 52%
    19:00 0°C° 0 mm 5 mps 741 mmHg 57%
    20:00 0°C° 0 mm 3 mps 742 mmHg 63%
    21:00 0°C° 0 mm 3 mps 742 mmHg 66%
    22:00 -1°C° 0 mm 3 mps 742 mmHg 69%
    23:00 -1°C° 0 mm 3 mps 743 mmHg 72%

    28 Marzo, Jueves

    Tiempo Temperatura Precipitaciones Viento Presión Humedad
    00:00 -1°C° 0 mm 2 mps 743 mmHg 72%
    01:00 -2°C° 0 mm 2 mps 743 mmHg 72%
    02:00 -2°C° 0 mm 2 mps 743 mmHg 71%
    03:00 -2°C° 0 mm 2 mps 744 mmHg 71%
    04:00 -2°C° 0 mm 2 mps 744 mmHg 70%
    05:00 -2°C° 0 mm 2 mps 744 mmHg 70%
    06:00 -2°C° 0 mm 3 mps 744 mmHg 63%
    07:00 -1°C° 0 mm 3 mps 745 mmHg 56%
    08:00 -1°C° 0 mm 4 mps 745 mmHg 49%
    09:00 0°C° 0 mm 4 mps 746 mmHg 45%
    10:00 +1°C° 0 mm 4 mps 746 mmHg 41%
    11:00 +3°C° 0 mm 4 mps 746 mmHg 36%
    12:00 +4°C° 0 mm 4 mps 746 mmHg 35%
    13:00 +4°C° 0 mm 3 mps 746 mmHg 34%
    14:00 +5°C° 0 mm 3 mps 746 mmHg 33%
    15:00 +5°C° 0 mm 3 mps 746 mmHg 33%
    16:00 +5°C° 0 mm 3 mps 746 mmHg 34%
    17:00 +5°C° 0 mm 3 mps 746 mmHg 34%
    18:00 +4°C° 0 mm 2 mps 746 mmHg 39%
    19:00 +3°C° 0 mm 2 mps 746 mmHg 44%
    20:00 +2°C° 0 mm 2 mps 747 mmHg 48%
    21:00 +2°C° 0 mm 2 mps 747 mmHg 50%
    22:00 +2°C° 0 mm 1 mps 747 mmHg 51%
    23:00 +2°C° 0 mm 1 mps 747 mmHg 53%

    29 Marzo, Viernes

    Tiempo Temperatura Precipitaciones Viento Presión Humedad
    00:00 +1°C° 0 mm 1 mps 747 mmHg 53%
    01:00 +1°C° 0 mm 1 mps 747 mmHg 53%
    02:00 -1°C° 0 mm 2 mps 747 mmHg 53%
    03:00 -1°C° 0 mm 2 mps 747 mmHg 53%
    04:00 -1°C° 0 mm 2 mps 747 mmHg 53%
    05:00 -1°C° 0 mm 2 mps 747 mmHg 54%
    06:00 0°C° 0 mm 3 mps 747 mmHg 50%
    07:00 +1°C° 0 mm 3 mps 747 mmHg 47%
    08:00 +1°C° 0 mm 4 mps 747 mmHg 44%
    09:00 +3°C° 0 mm 4 mps 747 mmHg 41%
    10:00 +5°C° 0 mm 4 mps 747 mmHg 38%
    11:00 +6°C° 0 mm 4 mps 747 mmHg 36%
    12:00 +7°C° 0 mm 5 mps 746 mmHg 37%
    13:00 +8°C° 0 mm 5 mps 745 mmHg 38%
    14:00 +9°C° 0 mm 6 mps 745 mmHg 40%
    15:00 +9°C° 0 mm 6 mps 744 mmHg 43%
    16:00 +9°C° 0 mm 6 mps 744 mmHg 47%
    17:00 +9°C° 0 mm 6 mps 743 mmHg 51%
    18:00 +8°C° 0 mm 5 mps 743 mmHg 58%
    19:00 +7°C° 0 mm 5 mps 743 mmHg 65%
    20:00 +6°C° 0 mm 4 mps 743 mmHg 72%
    21:00 +5°C° 0 mm 4 mps 743 mmHg 74%
    22:00 +5°C° 0 mm 4 mps 743 mmHg 76%
    23:00 +4°C° 0 mm 4 mps 743 mmHg 78%

    30 Marzo, Sábado

    Tiempo Temperatura Precipitaciones Viento Presión Humedad
    00:00 +4°C° 0 mm 4 mps 742 mmHg 80%
    01:00 +4°C° 0 mm 4 mps 742 mmHg 82%
    02:00 +3°C° 0 mm 3 mps 742 mmHg 84%
    03:00 +3°C° 0 mm 3 mps 742 mmHg 86%
    04:00 +2°C° 0 mm 3 mps 742 mmHg 88%
    05:00 +2°C° 0 mm 3 mps 742 mmHg 91%
    06:00 +3°C° 0 mm 3 mps 742 mmHg 87%
    07:00 +4°C° 0 mm 3 mps 742 mmHg 84%
    08:00 +5°C° 0 mm 3 mps 742 mmHg 80%
    09:00 +8°C° 0 mm 3 mps 742 mmHg 75%
    10:00 +10°C° 0 mm 3 mps 742 mmHg 70%
    11:00 +12°C° 0 mm 3 mps 742 mmHg 64%
    12:00 +12°C° 0 mm 3 mps 742 mmHg 61%
    13:00 +13°C° 0 mm 3 mps 741 mmHg 58%
    14:00 +14°C° 0 mm 3 mps 741 mmHg 55%
    15:00 +14°C° 0 mm 3 mps 741 mmHg 54%
    16:00 +14°C° 0 mm 3 mps 740 mmHg 52%
    17:00 +14°C° 0 mm 3 mps 740 mmHg 51%
    18:00 +14°C° 0 mm 2 mps 740 mmHg 57%
    19:00 +12°C° 0 mm 2 mps 740 mmHg 63%
    20:00 +11°C° 0 mm 1 mps 740 mmHg 69%
    21:00 +10°C° 0 mm 1 mps 740 mmHg 72%
    22:00 +10°C° 0 mm 1 mps 739 mmHg 74%
    23:00 +9°C° 0 mm 1 mps 739 mmHg 77%
    Mostrar más